Wind_Speed
38 37 35 34 34 35 36 38 39 40 41 40 40 40 38 36 31 26 23 21 22 22 22 22 21 22 26 29 30 32 32 31 30 26 24 21 22 24 26 27 29 29 29
38 38 37 34 32 32 32 32 33 34 34 35 34 32 31 28 23 19 17 17 17 20 21 23 26 28 29 29 28 26 23 20 17 15 17 20 22 24 25 26 27 27 28
40 39 39 36 32 30 29 28 28 27 28 28 27 26 25 22 20 18 18 18 16 16 17 18 19 20 22 21 20 18 16 14 15 18 19 21 22 24 25 25 25 26 27
40 39 39 38 33 29 27 26 25 23 22 21 22 21 19 19 19 20 21 20 18 17 16 15 14 14 15 15 16 15 14 16 18 20 20 20 22 23 24 24 26 26 28
39 38 38 38 34 29 26 25 23 20 19 19 19 18 16 16 18 20 21 21 20 19 17 15 14 13 13 14 15 15 16 18 19 20 20 20 21 22 24 26 27 29 30
40 38 36 37 34 29 26 24 22 20 17 17 16 15 14 12 14 16 16 16 16 16 16 15 14 13 12 13 14 15 15 17 18 19 20 20 21 23 25 27 27 28 29
40 38 36 35 33 29 27 25 23 20 18 16 15 14 13 12 10 12 13 14 15 16 16 15 15 14 14 14 14 14 15 15 16 18 19 20 21 22 22 22 22 24 26
40 38 35 33 32 28 27 26 24 21 18 16 15 15 15 13 11 11 13 14 15 16 16 16 15 14 14 14 14 13 13 13 13 14 15 15 16 16 18 20 24 27 30
40 38 36 33 30 28 26 25 23 21 19 17 16 15 15 14 13 12 12 13 13 14 14 13 11 11 11 12 12 11 11 10 9 9 10 13 15 18 21 24 27 30 33
43 39 37 34 31 29 28 25 23 22 20 17 16 15 16 16 14 11 10 11 11 11 11 10 9 9 9 9 9 9 7 6 7 8 11 14 18 21 25 28 30 32 34
48 43 41 37 32 30 28 25 23 21 20 18 17 16 17 17 16 14 13 12 11 10 9 10 10 9 9 8 8 7 7 7 8 9 13 17 20 23 25 27 27 28 28
51 45 40 37 33 30 28 26 24 22 20 18 16 15 14 14 15 16 17 15 12 10 10 11 11 10 10 8 7 7 7 6 8 11 14 17 20 21 23 23 24 24 24
54 51 45 38 34 32 30 28 26 23 20 18 15 14 12 11 13 15 17 16 14 12 11 12 12 11 10 9 8 8 7 6 7 11 14 17 19 21 22 22 22 22 21
56 54 48 42 37 35 33 31 27 24 21 18 16 14 13 13 13 14 15 16 15 13 13 13 13 11 10 9 8 8 7 6 7 10 14 17 19 20 21 21 21 21 21
56 56 51 44 39 37 36 33 30 26 23 21 19 17 15 14 14 14 15 15 15 15 14 12 12 11 10 9 8 8 7 6 7 9 12 16 18 20 22 23 24 24 23
52 56 52 46 41 39 37 34 32 28 25 24 23 20 18 16 15 14 14 14 15 15 14 13 13 12 11 9 9 9 8 7 7 8 10 14 17 19 22 24 26 27 27
48 53 52 48 44 40 37 35 33 30 27 27 26 23 20 17 16 16 15 14 14 14 13 12 12 11 10 10 11 11 9 9 8 8 9 11 14 17 20 23 26 28 30
44 50 51 50 47 41 37 36 34 31 29 29 28 26 24 20 18 16 14 14 12 11 11 10 10 10 10 11 13 13 12 11 10 8 8 9 12 15 18 22 26 29 31
41 47 49 50 46 41 38 36 35 33 31 30 30 28 26 23 19 17 16 15 13 12 11 11 11 10 11 13 15 16 16 14 12 10 9 8 9 12 16 21 25 29 32
38 44 47 46 43 40 38 38 37 35 32 30 29 28 26 24 21 19 18 17 16 15 14 14 14 13 13 14 16 18 18 17 15 14 13 11 10 12 16 21 25 28 30
37 43 45 45 43 41 40 39 39 36 33 30 29 28 27 26 23 21 19 18 18 17 17 16 17 16 15 15 17 19 19 19 18 17 17 17 16 17 19 22 24 26 29
38 42 43 42 42 41 41 40 39 36 34 32 30 29 28 26 24 21 18 17 19 19 18 18 17 17 15 15 17 19 20 19 19 20 20 21 22 22 21 22 23 25 29
38 39 40 40 40 40 40 39 38 35 32 30 28 27 26 24 21 18 17 18 19 19 18 17 17 16 15 15 16 18 19 20 21 21 22 23 23 22 20 20 21 24 29
37 36 38 38 39 37 37 37 37 34 31 28 26 25 24 21 18 16 16 17 17 17 16 16 16 15 14 14 16 17 18 19 20 22 22 22 21 19 18 18 20 24 28
37 37 37 36 35 33 33 36 37 35 32 28 26 26 23 19 16 16 16 16 15 15 15 15 14 13 13 14 15 16 17 18 20 20 20 19 19 19 19 20 22 25 29
37 37 36 35 32 30 31 34 36 35 33 30 27 25 21 18 17 17 15 14 13 14 14 14 13 13 13 13 14 15 16 17 17 17 16 17 18 19 20 22 24 27 30
Wind_Direction
326 327 323 314 304 298 295 294 293 292 290 288 287 288 288 287 284 276 270 265 255 246 242 237 232 229 232 238 243 245 249 253 256 256 255 253 254 256 257 259 261 260 258
320 324 325 319 309 302 298 296 296 295 293 291 290 289 287 282 274 262 252 242 232 224 216 213 215 217 221 227 233 239 243 249 253 252 254 254 257 259 262 263 264 262 261
315 319 322 320 312 305 300 301 301 300 298 297 297 293 285 270 258 242 229 218 209 200 197 203 208 216 224 231 234 234 236 242 248 252 255 259 262 263 264 265 266 265 263
310 313 318 319 312 304 300 301 303 302 299 302 305 300 284 264 249 234 222 212 210 204 208 215 228 240 247 246 240 236 238 244 250 255 258 260 262 263 264 266 267 266 266
305 308 313 316 311 302 298 299 303 305 301 303 311 308 290 264 245 232 225 223 224 225 227 231 239 245 249 248 243 240 242 248 255 260 261 262 264 266 267 268 268 269 269
301 303 306 309 308 299 295 297 303 307 304 304 308 309 297 272 245 235 233 233 232 230 226 228 233 235 239 242 244 246 249 253 258 261 264 267 269 271 272 272 273 274 275
296 297 298 301 303 294 290 294 300 302 301 303 300 296 293 279 259 243 238 237 234 235 235 233 232 233 235 239 244 247 250 253 257 263 267 271 273 274 275 278 280 281 281
289 290 289 291 293 288 284 288 294 294 294 298 298 291 283 280 269 257 247 242 240 240 238 235 234 235 237 241 242 243 246 250 257 265 271 274 276 278 281 285 288 290 289
281 282 281 281 282 278 275 279 285 286 287 292 295 292 283 277 269 259 249 246 247 240 234 231 232 232 232 232 233 237 244 254 265 272 280 288 294 298 299 299 298 296 294
270 271 272 271 270 267 265 269 273 277 279 282 286 286 279 272 265 257 250 247 241 235 230 225 221 219 222 227 229 229 234 250 268 284 298 308 311 311 309 307 305 304 303
261 262 261 258 257 257 257 258 261 265 268 270 274 275 273 266 255 244 239 238 235 231 223 217 216 221 220 213 210 218 237 262 284 303 315 319 318 317 315 315 314 314 314
253 251 249 246 245 247 249 249 252 254 256 259 263 267 267 258 244 234 229 227 222 213 208 211 218 214 203 204 219 240 259 288 312 324 327 328 330 331 331 330 330 329 325
245 242 240 236 237 240 242 240 243 245 247 248 248 249 243 235 225 221 219 217 215 211 207 207 205 202 209 224 238 245 262 291 316 329 335 340 342 344 344 343 341 338 332
240 236 235 232 229 233 235 233 235 238 238 234 228 224 219 218 214 212 211 210 213 216 210 201 202 212 227 234 233 241 255 276 313 337 346 350 352 353 354 353 351 347 341
237 232 229 225 223 226 228 227 227 230 228 223 215 210 207 208 212 213 211 212 215 216 212 210 217 225 231 231 233 242 256 285 320 338 350 357 359 0 3 5 2 357 351
238 231 224 217 216 219 223 221 220 222 221 218 212 208 210 212 218 220 216 212 213 213 214 218 223 228 232 235 236 243 262 287 310 329 351 0 2 6 10 11 10 7 2
242 231 221 212 209 212 217 217 214 215 215 213 211 210 216 220 220 221 219 216 215 215 218 224 229 232 237 241 242 245 256 271 289 317 347 0 3 6 10 12 12 10 6
244 229 217 209 205 208 211 211 209 210 209 209 210 211 216 221 220 220 220 219 219 221 224 228 230 231 238 245 247 244 246 258 275 300 331 353 1 3 4 5 4 3 1
239 224 214 205 201 204 206 207 205 206 205 205 208 210 213 216 217 220 225 228 230 233 235 236 236 237 243 250 250 245 244 251 266 285 303 325 344 350 351 351 351 351 352
229 218 210 201 198 200 204 205 203 204 206 205 205 207 210 212 215 220 228 234 239 243 245 243 240 240 246 252 251 246 242 247 258 273 287 296 309 322 330 334 336 339 343
215 209 205 201 199 202 206 205 202 201 205 206 206 208 210 213 219 228 235 239 243 247 249 249 246 243 248 254 252 248 244 247 256 267 278 285 291 300 311 319 326 332 338
201 199 200 200 203 204 205 203 199 199 203 206 209 213 216 220 225 229 232 236 241 245 249 252 250 248 254 258 253 250 249 251 258 267 276 283 287 292 299 308 317 328 335
187 190 194 197 198 200 201 198 195 196 200 204 208 211 212 213 215 222 231 239 243 245 247 248 248 252 260 259 254 253 256 259 265 271 278 284 287 289 293 302 313 325 332
174 180 186 190 191 192 194 192 192 194 199 204 205 204 202 204 214 230 244 249 246 243 242 245 248 254 258 255 254 256 261 267 274 279 282 283 285 285 289 299 312 323 330
168 173 179 182 185 188 191 192 192 196 200 204 203 201 201 210 228 244 250 246 239 235 237 241 245 250 255 257 258 263 269 276 282 285 284 282 282 285 291 300 310 319 327
166 170 174 177 180 185 190 192 194 196 200 201 201 202 207 221 239 247 247 241 233 232 236 240 241 246 255 262 267 271 275 279 281 282 281 278 278 283 290 298 308 316 323
Height
5767 5761 5755 5749 5744 5740 5737 5734 5730 5727 5725 5722 5720 5718 5716 5714 5712 5711 5710 5709 5709 5710 5712 5715 5717 5720 5723 5725 5727 5729 5730 5731 5733 5735 5737 5739 5742 5744 5747 5749 5750 5751 5752
5760 5754 5748 5742 5737 5733 5729 5726 5722 5718 5715 5712 5709 5707 5706 5705 5704 5704 5703 5704 5704 5706 5707 5709 5711 5714 5715 5717 5719 5721 5723 5725 5727 5730 5731 5734 5736 5738 5740 5741 5742 5742 5743
5752 5746 5741 5735 5730 5726 5723 5719 5716 5712 5708 5704 5702 5700 5698 5697 5698 5698 5699 5699 5700 5701 5703 5705 5707 5709 5710 5712 5714 5716 5718 5720 5722 5724 5726 5728 5730 5732 5733 5734 5734 5735 5734
5744 5739 5734 5728 5723 5719 5716 5713 5710 5706 5703 5700 5697 5694 5693 5692 5693 5694 5694 5694 5695 5696 5698 5700 5702 5704 5706 5708 5710 5712 5714 5716 5717 5718 5720 5722 5723 5724 5725 5726 5727 5727 5727
5736 5732 5727 5722 5716 5712 5709 5707 5704 5701 5698 5696 5693 5690 5688 5687 5688 5688 5689 5690 5691 5692 5694 5696 5697 5700 5702 5705 5707 5709 5711 5712 5714 5715 5716 5717 5717 5718 5718 5719 5719 5718 5718
5727 5723 5720 5715 5710 5705 5703 5700 5697 5695 5693 5691 5689 5686 5684 5683 5683 5684 5684 5685 5686 5688 5690 5692 5694 5696 5698 5701 5704 5706 5707 5709 5709 5711 5711 5712 5712 5711 5711 5711 5710 5709 5708
5716 5713 5710 5707 5703 5699 5696 5694 5692 5689 5688 5686 5684 5683 5682 5681 5680 5680 5681 5682 5684 5685 5687 5689 5690 5693 5695 5698 5700 5702 5703 5704 5706 5706 5706 5706 5706 5704 5704 5703 5702 5700 5698
5704 5702 5700 5697 5695 5692 5689 5687 5686 5684 5682 5680 5679 5679 5679 5678 5677 5677 5678 5679 5681 5683 5684 5686 5688 5690 5692 5694 5696 5698 5699 5700 5701 5700 5700 5700 5699 5698 5697 5696 5694 5691 5689
5692 5690 5689 5687 5685 5683 5681 5681 5680 5678 5676 5675 5674 5674 5674 5674 5674 5674 5675 5676 5678 5680 5681 5683 5685 5687 5689 5691 5692 5694 5695 5695 5695 5695 5695 5694 5693 5692 5690 5688 5685 5682 5679
5677 5677 5677 5677 5675 5674 5673 5673 5673 5671 5670 5669 5669 5669 5670 5671 5671 5671 5671 5673 5675 5677 5679 5680 5682 5684 5686 5687 5689 5690 5691 5691 5691 5691 5690 5689 5687 5685 5683 5679 5675 5671 5667
5659 5661 5663 5663 5663 5663 5663 5665 5665 5664 5664 5664 5664 5664 5665 5666 5667 5668 5669 5670 5672 5674 5676 5678 5680 5682 5683 5684 5685 5687 5687 5688 5688 5687 5686 5684 5681 5678 5675 5671 5666 5662 5657
5639 5643 5646 5648 5650 5651 5653 5656 5658 5657 5657 5658 5658 5659 5660 5662 5663 5664 5665 5667 5670 5672 5673 5675 5677 5679 5680 5681 5682 5683 5684 5684 5684 5683 5681 5679 5676 5672 5668 5663 5659 5654 5650
5616 5622 5628 5632 5636 5639 5642 5646 5649 5650 5651 5651 5652 5654 5656 5659 5661 5661 5662 5664 5666 5669 5671 5672 5674 5676 5677 5678 5679 5679 5680 5680 5680 5679 5677 5674 5671 5667 5663 5658 5654 5649 5645
5592 5600 5608 5615 5621 5626 5631 5636 5641 5643 5644 5646 5647 5649 5652 5656 5659 5660 5660 5662 5663 5666 5668 5669 5671 5673 5674 5675 5675 5676 5676 5677 5676 5675 5673 5670 5667 5663 5659 5654 5649 5645 5641
5568 5577 5588 5598 5606 5613 5619 5625 5631 5635 5637 5639 5641 5644 5648 5653 5657 5658 5659 5660 5661 5663 5664 5666 5668 5670 5671 5671 5672 5673 5673 5673 5672 5671 5669 5667 5664 5660 5655 5650 5646 5642 5637
5548 5557 5568 5581 5591 5600 5607 5614 5621 5626 5629 5633 5636 5639 5643 5648 5652 5655 5656 5657 5658 5660 5661 5663 5664 5666 5667 5667 5669 5669 5669 5670 5669 5668 5665 5663 5660 5657 5652 5648 5644 5640 5636
5532 5541 5552 5565 5577 5587 5595 5603 5611 5617 5621 5626 5630 5634 5638 5642 5647 5650 5652 5654 5655 5656 5658 5659 5660 5661 5662 5663 5665 5665 5666 5666 5666 5665 5662 5659 5657 5654 5650 5647 5643 5639 5634
5519 5527 5539 5552 5564 5575 5585 5594 5602 5609 5614 5619 5624 5628 5632 5637 5641 5645 5648 5650 5651 5652 5654 5655 5656 5657 5658 5659 5660 5661 5662 5663 5662 5661 5658 5656 5654 5651 5648 5645 5641 5637 5632
5505 5514 5527 5540 5553 5564 5575 5584 5593 5601 5607 5613 5618 5622 5627 5631 5636 5640 5643 5646 5647 5648 5650 5651 5652 5654 5655 5656 5657 5658 5659 5659 5658 5657 5655 5653 5651 5649 5646 5643 5640 5635 5631
5493 5504 5517 5530 5543 5555 5566 5576 5585 5594 5601 5607 5612 5617 5622 5627 5631 5635 5638 5640 5642 5644 5645 5647 5648 5649 5651 5652 5652 5653 5654 5655 5654 5653 5652 5650 5648 5646 5643 5641 5637 5633 5629
5484 5496 5510 5523 5536 5548 5559 5569 5579 5588 5596 5602 5607 5612 5617 5622 5626 5629 5632 5634 5637 5639 5640 5641 5643 5644 5645 5647 5647 5648 5649 5649 5649 5648 5647 5646 5644 5642 5640 5637 5634 5630 5626
5478 5491 5505 5519 5531 5543 5554 5563 5573 5582 5590 5596 5601 5606 5611 5616 5620 5624 5626 5628 5631 5633 5635 5636 5637 5638 5640 5641 5642 5642 5642 5643 5642 5642 5641 5640 5639 5637 5635 5633 5630 5627 5623
5476 5490 5503 5516 5528 5539 5549 5559 5568 5577 5584 5591 5596 5602 5607 5611 5615 5619 5621 5623 5625 5628 5629 5631 5632 5633 5634 5635 5635 5636 5636 5637 5636 5636 5635 5634 5633 5631 5630 5628 5626 5622 5619
5477 5490 5503 5514 5526 5536 5547 5556 5565 5573 5580 5586 5592 5598 5603 5607 5611 5614 5616 5617 5619 5621 5623 5625 5626 5627 5628 5629 5629 5630 5630 5630 5630 5629 5629 5627 5626 5625 5624 5623 5620 5618 5614
5481 5493 5504 5516 5526 5536 5545 5554 5562 5570 5577 5583 5589 5594 5599 5603 5606 5608 5610 5611 5613 5616 5618 5619 5620 5621 5622 5623 5624 5624 5624 5623 5623 5622 5621 5620 5619 5618 5617 5616 5614 5612 5609
5485 5496 5507 5518 5527 5536 5544 5552 5560 5567 5574 5580 5585 5590 5595 5599 5602 5604 5605 5606 5609 5611 5613 5614 5615 5616 5617 5618 5618 5617 5617 5617 5616 5615 5615 5614 5613 5612 5611 5609 5607 5605 5601